Time,TemperatureF,DewpointF,PressureIn,WindDirection,WindDirectionDegrees,WindSpeedMPH,WindSpeedGustMPH,Humidity,HourlyPrecipIn,Conditions,Clouds,dailyrainin,SoftwareType,DateUTC
2013-01-01 00:00:00,44.3,29.1,30.32,South,184,0.0,0.0,55,0.00,,,0.00,Wunderground v.1.13,2013-01-01 05:00:00,
2013-01-01 00:01:00,44.3,28.7,30.32,South,184,0.0,0.0,54,0.00,,,0.00,Wunderground v.1.13,2013-01-01 05:01:00,
2013-01-01 00:03:00,44.3,28.7,30.32,South,184,0.0,0.0,54,0.00,,,0.00,Wunderground v.1.13,2013-01-01 05:03:00,
2013-01-01 00:04:00,44.3,29.1,30.32,South,184,0.0,0.0,55,0.00,,,0.00,Wunderground v.1.13,2013-01-01 05:04:00,
2013-01-01 00:10:00,44.1,29.4,30.32,South,184,0.0,0.0,56,0.00,,,0.00,Wunderground v.1.13,2013-01-01 05:10:00,
2013-01-01 00:16:00,43.9,30.5,30.31,South,184,0.0,0.0,59,0.00,,,0.00,Wunderground v.1.13,2013-01-01 05:16:00,
2013-01-01 00:21:00,43.8,31.6,30.30,South,184,0.0,0.0,62,0.00,,,0.00,Wunderground v.1.13,2013-01-01 05:21:00,
2013-01-01 00:26:00,43.8,31.6,30.30,South,184,0.0,0.0,62,0.00,,,0.00,Wunderground v.1.13,2013-01-01 05:26:00,
2013-01-01 00:32:00,43.7,30.3,30.32,South,184,0.0,0.0,59,0.00,,,0.00,Wunderground v.1.13,2013-01-01 05:32:00,
2013-01-01 00:38:00,43.6,29.8,30.32,South,184,0.0,0.0,58,0.00,,,0.00,Wunderground v.1.13,2013-01-01 05:38:00,
2013-01-01 00:43:00,43.5,30.9,30.32,South,184,0.0,0.0,61,0.00,,,0.00,Wunderground v.1.13,2013-01-01 05:43:00,
2013-01-01 00:48:00,43.5,31.7,30.32,South,184,0.0,0.0,63,0.00,,,0.00,Wunderground v.1.13,2013-01-01 05:48:00,
2013-01-01 00:53:00,43.8,32.8,30.32,South,184,0.0,0.0,65,0.00,,,0.00,Wunderground v.1.13,2013-01-01 05:53:00,
2013-01-01 00:58:00,44.3,34.4,30.31,South,184,0.0,0.0,68,0.00,,,0.00,Wunderground v.1.13,2013-01-01 05:58:00,
2013-01-01 01:03:00,44.7,36.2,30.31,South,184,0.0,0.0,72,0.00,,,0.00,Wunderground v.1.13,2013-01-01 06:03:00,
2013-01-01 01:09:00,45.1,36.6,30.30,South,184,0.0,0.0,72,0.00,,,0.00,Wunderground v.1.13,2013-01-01 06:09:00,
2013-01-01 01:14:00,45.4,36.9,30.29,South,184,0.0,0.0,72,0.00,,,0.00,Wunderground v.1.13,2013-01-01 06:14:00,
2013-01-01 01:19:00,45.6,37.4,30.29,South,184,0.0,0.0,73,0.00,,,0.00,Wunderground v.1.13,2013-01-01 06:19:00,
2013-01-01 01:24:00,45.8,38.0,30.30,South,184,0.0,0.0,74,0.00,,,0.00,Wunderground v.1.13,2013-01-01 06:24:00,
2013-01-01 01:29:00,46.0,38.2,30.30,South,184,0.0,0.0,74,0.00,,,0.00,Wunderground v.1.13,2013-01-01 06:29:00,
2013-01-01 01:35:00,46.2,38.0,30.29,South,184,0.0,0.0,73,0.00,,,0.00,Wunderground v.1.13,2013-01-01 06:35:00,
2013-01-01 01:40:00,46.3,38.1,30.29,South,184,0.0,0.0,73,0.00,,,0.00,Wunderground v.1.13,2013-01-01 06:40:00,
2013-01-01 01:45:00,46.3,38.5,30.29,South,184,0.0,0.0,74,0.00,,,0.00,Wunderground v.1.13,2013-01-01 06:45:00,
2013-01-01 01:51:00,46.3,38.8,30.30,South,184,0.0,0.0,75,0.00,,,0.00,Wunderground v.1.13,2013-01-01 06:51:00,
2013-01-01 01:57:00,46.4,39.2,30.29,South,184,0.0,0.0,76,0.00,,,0.00,Wunderground v.1.13,2013-01-01 06:57:00,
2013-01-01 02:02:00,46.5,39.3,30.29,South,184,0.0,0.0,76,0.00,,,0.00,Wunderground v.1.13,2013-01-01 07:02:00,
2013-01-01 02:07:00,46.5,39.3,30.29,South,184,0.0,0.0,76,0.00,,,0.00,Wunderground v.1.13,2013-01-01 07:07:00,
2013-01-01 02:12:00,46.5,39.7,30.29,South,184,0.0,0.0,77,0.00,,,0.00,Wunderground v.1.13,2013-01-01 07:12:00,
2013-01-01 02:17:00,46.6,39.8,30.29,South,184,0.0,0.0,77,0.00,,,0.00,Wunderground v.1.13,2013-01-01 07:17:00,
2013-01-01 02:22:00,46.6,40.1,30.28,South,184,0.0,0.0,78,0.00,,,0.00,Wunderground v.1.13,2013-01-01 07:22:00,
2013-01-01 02:27:00,46.6,40.1,30.28,South,184,0.0,0.0,78,0.00,,,0.00,Wunderground v.1.13,2013-01-01 07:27:00,
2013-01-01 02:32:00,46.7,40.5,30.28,South,184,0.0,0.0,79,0.00,,,0.00,Wunderground v.1.13,2013-01-01 07:32:00,
2013-01-01 02:37:00,46.8,41.0,30.28,South,184,0.0,0.0,80,0.00,,,0.00,Wunderground v.1.13,2013-01-01 07:37:00,
2013-01-01 02:42:00,46.8,41.0,30.28,South,184,0.0,0.0,80,0.00,,,0.00,Wunderground v.1.13,2013-01-01 07:42:00,
2013-01-01 02:47:00,46.9,41.1,30.28,South,184,0.0,0.0,80,0.00,,,0.00,Wunderground v.1.13,2013-01-01 07:47:00,
2013-01-01 02:52:00,46.9,40.7,30.28,South,184,0.0,0.0,79,0.00,,,0.00,Wunderground v.1.13,2013-01-01 07:52:00,
2013-01-01 02:57:00,46.9,40.7,30.28,South,184,0.0,1.0,79,0.00,,,0.00,Wunderground v.1.13,2013-01-01 07:57:00,
2013-01-01 03:02:00,46.8,41.0,30.29,South,184,0.0,1.0,80,0.00,,,0.00,Wunderground v.1.13,2013-01-01 08:02:00,
2013-01-01 03:07:00,47.0,41.1,30.29,South,181,0.0,2.0,80,0.00,,,0.00,Wunderground v.1.13,2013-01-01 08:07:00,
2013-01-01 03:12:00,47.1,41.2,30.28,South,181,0.0,1.0,80,0.00,,,0.00,Wunderground v.1.13,2013-01-01 08:12:00,
2013-01-01 03:17:00,47.3,41.4,30.28,South,181,0.0,0.0,80,0.00,,,0.00,Wunderground v.1.13,2013-01-01 08:17:00,
2013-01-01 03:22:00,47.6,42.1,30.28,South,185,0.0,2.0,81,0.00,,,0.00,Wunderground v.1.13,2013-01-01 08:22:00,
2013-01-01 03:27:00,47.8,41.9,30.28,South,182,0.0,0.0,80,0.00,,,0.00,Wunderground v.1.13,2013-01-01 08:27:00,
2013-01-01 03:32:00,48.1,42.5,30.27,SW,222,0.0,2.0,81,0.00,,,0.00,Wunderground v.1.13,2013-01-01 08:32:00,
2013-01-01 03:37:00,48.2,42.6,30.28,SW,222,0.0,0.0,81,0.00,,,0.00,Wunderground v.1.13,2013-01-01 08:37:00,
2013-01-01 03:42:00,48.1,42.5,30.28,SW,222,0.0,0.0,81,0.00,,,0.00,Wunderground v.1.13,2013-01-01 08:42:00,
2013-01-01 03:47:00,48.1,42.5,30.28,SW,222,0.0,0.0,81,0.00,,,0.00,Wunderground v.1.13,2013-01-01 08:47:00,
2013-01-01 03:52:00,48.1,42.9,30.28,SW,222,0.0,1.0,82,0.00,,,0.00,Wunderground v.1.13,2013-01-01 08:52:00,
2013-01-01 03:57:00,48.1,42.9,30.28,SW,222,0.0,0.0,82,0.00,,,0.00,Wunderground v.1.13,2013-01-01 08:57:00,
2013-01-01 04:02:00,48.1,43.2,30.27,SW,222,0.0,0.0,83,0.00,,,0.00,Wunderground v.1.13,2013-01-01 09:02:00,
2013-01-01 04:07:00,48.1,43.2,30.28,SW,222,0.0,0.0,83,0.00,,,0.00,Wunderground v.1.13,2013-01-01 09:07:00,
2013-01-01 04:12:00,48.1,43.2,30.28,SW,222,0.0,0.0,83,0.00,,,0.00,Wunderground v.1.13,2013-01-01 09:12:00,
2013-01-01 04:17:00,48.1,43.5,30.27,SW,222,0.0,0.0,84,0.00,,,0.00,Wunderground v.1.13,2013-01-01 09:17:00,
2013-01-01 04:22:00,48.2,43.6,30.27,SW,222,0.0,0.0,84,0.00,,,0.00,Wunderground v.1.13,2013-01-01 09:22:00,
2013-01-01 04:27:00,48.4,43.8,30.27,SW,222,0.0,1.0,84,0.00,,,0.00,Wunderground v.1.13,2013-01-01 09:27:00,
2013-01-01 04:32:00,48.5,43.9,30.27,SW,222,0.0,0.0,84,0.00,,,0.00,Wunderground v.1.13,2013-01-01 09:32:00,
2013-01-01 04:37:00,48.5,43.9,30.27,SW,222,0.0,0.0,84,0.00,,,0.00,Wunderground v.1.13,2013-01-01 09:37:00,
2013-01-01 04:42:00,48.6,44.3,30.26,SW,222,0.0,0.0,85,0.00,,,0.00,Wunderground v.1.13,2013-01-01 09:42:00,
2013-01-01 04:47:00,48.7,44.4,30.26,SSW,193,0.0,1.0,85,0.00,,,0.00,Wunderground v.1.13,2013-01-01 09:47:00,
2013-01-01 04:52:00,48.8,44.5,30.26,SSE,153,0.0,1.0,85,0.00,,,0.00,Wunderground v.1.13,2013-01-01 09:52:00,
2013-01-01 04:57:00,49.0,44.7,30.26,SSW,193,2.0,2.0,85,0.00,,,0.00,Wunderground v.1.13,2013-01-01 09:57:00,
2013-01-01 05:03:00,49.1,44.8,30.26,SSE,164,0.0,5.0,85,0.00,,,0.00,Wunderground v.1.13,2013-01-01 10:03:00,
2013-01-01 05:08:00,49.2,44.9,30.25,South,190,0.0,3.0,85,0.00,,,0.00,Wunderground v.1.13,2013-01-01 10:08:00,
2013-01-01 05:13:00,49.2,45.2,30.25,SSE,166,0.0,3.0,86,0.00,,,0.00,Wunderground v.1.13,2013-01-01 10:13:00,
2013-01-01 05:18:00,49.2,45.2,30.25,SSE,166,0.0,1.0,86,0.00,,,0.00,Wunderground v.1.13,2013-01-01 10:18:00,
2013-01-01 05:23:00,49.2,45.8,30.25,SSE,166,0.0,0.0,88,0.00,,,0.00,Wunderground v.1.13,2013-01-01 10:23:00,
2013-01-01 05:28:00,49.0,45.9,30.25,SSE,166,0.0,0.0,89,0.00,,,0.01,Wunderground v.1.13,2013-01-01 10:28:00,
2013-01-01 05:33:00,48.7,45.9,30.25,SSE,166,0.0,0.0,90,0.09,,,0.02,Wunderground v.1.13,2013-01-01 10:33:00,
2013-01-01 05:38:00,48.4,45.9,30.24,SSE,166,0.0,0.0,91,0.09,,,0.02,Wunderground v.1.13,2013-01-01 10:38:00,
2013-01-01 05:43:00,48.2,46.0,30.24,SSE,166,0.0,0.0,92,0.07,,,0.03,Wunderground v.1.13,2013-01-01 10:43:00,
2013-01-01 05:48:00,48.1,46.2,30.25,SSE,166,0.0,0.0,93,0.07,,,0.03,Wunderground v.1.13,2013-01-01 10:48:00,
2013-01-01 05:53:00,47.8,45.9,30.25,SSE,166,0.0,1.0,93,0.06,,,0.04,Wunderground v.1.13,2013-01-01 10:53:00,
2013-01-01 05:58:00,47.5,45.6,30.25,SSE,166,0.0,1.0,93,0.06,,,0.04,Wunderground v.1.13,2013-01-01 10:58:00,
2013-01-01 06:03:00,47.2,45.3,30.25,SSE,166,0.0,1.0,93,0.06,,,0.05,Wunderground v.1.13,2013-01-01 11:03:00,
2013-01-01 06:08:00,47.0,45.4,30.25,East,91,1.0,2.0,94,0.06,,,0.05,Wunderground v.1.13,2013-01-01 11:08:00,
2013-01-01 06:13:00,46.9,45.5,30.26,ENE,65,0.0,2.0,95,0.05,,,0.05,Wunderground v.1.13,2013-01-01 11:13:00,
2013-01-01 06:18:00,46.8,45.4,30.26,North,355,1.0,3.0,95,0.04,,,0.05,Wunderground v.1.13,2013-01-01 11:18:00,
2013-01-01 06:23:00,46.8,45.4,30.26,NNW,348,4.0,4.0,95,0.00,,,0.06,Wunderground v.1.13,2013-01-01 11:23:00,
2013-01-01 06:28:00,46.8,45.7,30.27,North,349,0.0,2.0,96,0.10,,,0.07,Wunderground v.1.13,2013-01-01 11:28:00,
2013-01-01 06:33:00,46.6,45.5,30.27,North,349,0.0,1.0,96,0.14,,,0.08,Wunderground v.1.13,2013-01-01 11:33:00,
2013-01-01 06:38:00,46.3,44.9,30.27,North,349,0.0,1.0,95,0.10,,,0.09,Wunderground v.1.13,2013-01-01 11:38:00,
2013-01-01 06:43:00,46.1,44.7,30.26,North,349,0.0,0.0,95,0.10,,,0.10,Wunderground v.1.13,2013-01-01 11:43:00,
2013-01-01 06:48:00,46.1,45.0,30.26,North,349,0.0,0.0,96,0.10,,,0.11,Wunderground v.1.13,2013-01-01 11:48:00,
2013-01-01 06:53:00,46.3,45.2,30.26,North,349,0.0,1.0,96,0.10,,,0.12,Wunderground v.1.13,2013-01-01 11:53:00,
2013-01-01 06:58:00,46.3,45.2,30.27,North,349,0.0,0.0,96,0.17,,,0.13,Wunderground v.1.13,2013-01-01 11:58:00,
2013-01-01 07:04:00,46.5,45.7,30.26,North,349,0.0,1.0,97,0.16,,,0.14,Wunderground v.1.13,2013-01-01 12:04:00,
2013-01-01 07:09:00,46.9,46.1,30.26,North,349,0.0,0.0,97,0.12,,,0.15,Wunderground v.1.13,2013-01-01 12:09:00,
2013-01-01 07:14:00,46.9,46.1,30.26,North,349,0.0,0.0,97,0.13,,,0.16,Wunderground v.1.13,2013-01-01 12:14:00,
2013-01-01 07:19:00,46.3,45.2,30.26,North,349,0.0,0.0,96,0.19,,,0.18,Wunderground v.1.13,2013-01-01 12:19:00,
2013-01-01 07:24:00,45.9,44.8,30.26,North,349,0.0,0.0,96,0.14,,,0.19,Wunderground v.1.13,2013-01-01 12:24:00,
2013-01-01 07:29:00,45.6,44.5,30.26,North,349,0.0,0.0,96,0.14,,,0.20,Wunderground v.1.13,2013-01-01 12:29:00,
2013-01-01 07:34:00,45.5,44.4,30.26,North,349,0.0,0.0,96,0.13,,,0.21,Wunderground v.1.13,2013-01-01 12:34:00,
2013-01-01 07:39:00,45.8,45.0,30.26,North,349,0.0,0.0,97,0.13,,,0.22,Wunderground v.1.13,2013-01-01 12:39:00,
2013-01-01 07:44:00,46.3,45.5,30.26,North,349,0.0,0.0,97,0.08,,,0.23,Wunderground v.1.13,2013-01-01 12:44:00,
2013-01-01 07:49:00,46.5,45.7,30.26,North,349,0.0,0.0,97,0.11,,,0.24,Wunderground v.1.13,2013-01-01 12:49:00,
2013-01-01 07:54:00,46.6,45.8,30.26,North,349,0.0,0.0,97,0.11,,,0.24,Wunderground v.1.13,2013-01-01 12:54:00,
2013-01-01 07:59:00,46.5,45.7,30.26,North,349,0.0,0.0,97,0.08,,,0.25,Wunderground v.1.13,2013-01-01 12:59:00,
2013-01-01 08:04:00,46.7,45.9,30.26,North,349,0.0,0.0,97,0.11,,,0.26,Wunderground v.1.13,2013-01-01 13:04:00,
2013-01-01 08:09:00,46.8,46.0,30.26,North,349,0.0,0.0,97,0.08,,,0.26,Wunderground v.1.13,2013-01-01 13:09:00,
2013-01-01 08:14:00,46.7,45.9,30.26,North,349,0.0,1.0,97,0.06,,,0.27,Wunderground v.1.13,2013-01-01 13:14:00,
2013-01-01 08:19:00,46.6,45.8,30.26,North,349,0.0,0.0,97,0.09,,,0.28,Wunderground v.1.13,2013-01-01 13:19:00,
2013-01-01 08:24:00,46.4,45.6,30.26,North,349,0.0,0.0,97,0.09,,,0.28,Wunderground v.1.13,2013-01-01 13:24:00,
2013-01-01 08:29:00,46.4,45.6,30.26,North,349,0.0,0.0,97,0.06,,,0.29,Wunderground v.1.13,2013-01-01 13:29:00,
2013-01-01 08:34:00,46.7,45.9,30.26,North,349,0.0,0.0,97,0.11,,,0.30,Wunderground v.1.13,2013-01-01 13:34:00,
2013-01-01 08:39:00,47.1,46.3,30.25,North,349,0.0,1.0,97,0.10,,,0.30,Wunderground v.1.13,2013-01-01 13:39:00,
2013-01-01 08:44:00,47.3,46.8,30.26,North,349,0.0,1.0,98,0.06,,,0.30,Wunderground v.1.13,2013-01-01 13:44:00,
2013-01-01 08:49:00,46.6,46.1,30.26,North,349,0.0,0.0,98,0.05,,,0.31,Wunderground v.1.13,2013-01-01 13:49:00,
2013-01-01 08:54:00,45.5,44.7,30.26,North,349,0.0,1.0,97,0.07,,,0.32,Wunderground v.1.13,2013-01-01 13:54:00,
2013-01-01 08:59:00,44.9,43.8,30.26,North,349,0.0,0.0,96,0.07,,,0.32,Wunderground v.1.13,2013-01-01 13:59:00,
2013-01-01 09:04:00,44.4,43.3,30.27,North,349,0.0,0.0,96,0.06,,,0.33,Wunderground v.1.13,2013-01-01 14:04:00,
2013-01-01 09:09:00,44.2,43.1,30.27,North,349,0.0,0.0,96,0.06,,,0.33,Wunderground v.1.13,2013-01-01 14:09:00,
2013-01-01 09:14:00,44.0,42.9,30.27,North,349,0.0,0.0,96,0.07,,,0.34,Wunderground v.1.13,2013-01-01 14:14:00,
2013-01-01 09:20:00,43.9,43.1,30.27,North,349,0.0,0.0,97,0.08,,,0.35,Wunderground v.1.13,2013-01-01 14:20:00,
2013-01-01 09:25:00,43.9,43.1,30.27,North,349,0.0,0.0,97,0.08,,,0.35,Wunderground v.1.13,2013-01-01 14:25:00,
2013-01-01 09:30:00,43.9,43.1,30.27,North,349,0.0,0.0,97,0.10,,,0.36,Wunderground v.1.13,2013-01-01 14:30:00,
2013-01-01 09:35:00,43.9,43.1,30.27,North,349,1.0,1.0,97,0.06,,,0.36,Wunderground v.1.13,2013-01-01 14:35:00,
2013-01-01 09:40:00,43.8,43.0,30.27,North,349,0.0,0.0,97,0.04,,,0.36,Wunderground v.1.13,2013-01-01 14:40:00,
2013-01-01 09:45:00,43.9,43.1,30.27,North,349,0.0,0.0,97,0.04,,,0.37,Wunderground v.1.13,2013-01-01 14:45:00,
2013-01-01 09:50:00,44.4,43.6,30.26,North,349,0.0,0.0,97,0.04,,,0.37,Wunderground v.1.13,2013-01-01 14:50:00,
2013-01-01 09:55:00,45.1,44.6,30.26,North,349,0.0,0.0,98,0.04,,,0.37,Wunderground v.1.13,2013-01-01 14:55:00,
2013-01-01 10:00:00,45.3,44.8,30.26,North,349,0.0,0.0,98,0.00,,,0.38,Wunderground v.1.13,2013-01-01 15:00:00,
2013-01-01 10:05:00,45.3,44.8,30.25,North,349,0.0,0.0,98,0.00,,,0.38,Wunderground v.1.13,2013-01-01 15:05:00,
2013-01-01 10:10:00,45.8,45.3,30.26,North,349,1.0,2.0,98,0.00,,,0.38,Wunderground v.1.13,2013-01-01 15:10:00,
2013-01-01 10:15:00,45.7,45.2,30.25,North,349,0.0,0.0,98,0.00,,,0.38,Wunderground v.1.13,2013-01-01 15:15:00,
2013-01-01 10:20:00,45.2,44.7,30.25,North,349,0.0,0.0,98,0.00,,,0.38,Wunderground v.1.13,2013-01-01 15:20:00,
2013-01-01 10:25:00,45.2,44.7,30.25,North,349,0.0,0.0,98,0.00,,,0.38,Wunderground v.1.13,2013-01-01 15:25:00,
2013-01-01 10:30:00,45.9,45.4,30.25,North,349,0.0,0.0,98,0.00,,,0.38,Wunderground v.1.13,2013-01-01 15:30:00,
2013-01-01 10:35:00,46.1,45.6,30.24,North,349,0.0,0.0,98,0.00,,,0.38,Wunderground v.1.13,2013-01-01 15:35:00,
2013-01-01 10:40:00,46.0,45.5,30.25,North,349,0.0,0.0,98,0.00,,,0.38,Wunderground v.1.13,2013-01-01 15:40:00,
2013-01-01 10:45:00,46.1,45.6,30.25,North,349,0.0,0.0,98,0.00,,,0.38,Wunderground v.1.13,2013-01-01 15:45:00,
2013-01-01 10:50:00,46.4,45.9,30.24,North,349,0.0,0.0,98,0.00,,,0.38,Wunderground v.1.13,2013-01-01 15:50:00,
2013-01-01 10:55:00,47.0,46.5,30.24,North,349,0.0,0.0,98,0.00,,,0.39,Wunderground v.1.13,2013-01-01 15:55:00,
2013-01-01 11:00:00,47.2,46.7,30.24,North,349,0.0,0.0,98,0.00,,,0.39,Wunderground v.1.13,2013-01-01 16:00:00,
2013-01-01 11:05:00,47.5,47.0,30.23,North,349,0.0,0.0,98,0.00,,,0.39,Wunderground v.1.13,2013-01-01 16:05:00,
2013-01-01 11:11:00,47.6,47.1,30.23,North,349,0.0,0.0,98,0.00,,,0.39,Wunderground v.1.13,2013-01-01 16:11:00,
2013-01-01 11:16:00,47.5,47.0,30.23,North,349,0.0,0.0,98,0.00,,,0.39,Wunderground v.1.13,2013-01-01 16:16:00,
2013-01-01 11:21:00,47.6,47.1,30.23,North,349,0.0,0.0,98,0.00,,,0.39,Wunderground v.1.13,2013-01-01 16:21:00,
2013-01-01 11:26:00,47.4,46.9,30.24,North,349,0.0,0.0,98,0.00,,,0.39,Wunderground v.1.13,2013-01-01 16:26:00,
2013-01-01 11:31:00,47.3,46.8,30.24,North,349,0.0,0.0,98,0.00,,,0.39,Wunderground v.1.13,2013-01-01 16:31:00,
2013-01-01 11:36:00,47.1,46.6,30.24,North,349,0.0,0.0,98,0.00,,,0.40,Wunderground v.1.13,2013-01-01 16:36:00,
2013-01-01 11:41:00,47.0,46.5,30.23,North,349,0.0,0.0,98,0.06,,,0.41,Wunderground v.1.13,2013-01-01 16:41:00,
2013-01-01 11:46:00,47.0,46.5,30.23,North,349,0.0,0.0,98,0.06,,,0.41,Wunderground v.1.13,2013-01-01 16:46:00,
2013-01-01 11:51:00,47.1,46.6,30.23,North,349,0.0,0.0,98,0.06,,,0.42,Wunderground v.1.13,2013-01-01 16:51:00,
2013-01-01 11:56:00,47.2,46.7,30.23,North,349,0.0,0.0,98,0.06,,,0.42,Wunderground v.1.13,2013-01-01 16:56:00,
2013-01-01 12:01:00,47.3,46.8,30.23,North,349,0.0,0.0,98,0.06,,,0.42,Wunderground v.1.13,2013-01-01 17:01:00,
2013-01-01 12:06:00,47.4,46.9,30.22,North,349,0.0,0.0,98,0.04,,,0.42,Wunderground v.1.13,2013-01-01 17:06:00,
2013-01-01 12:11:00,47.4,46.9,30.22,North,349,0.0,0.0,98,0.00,,,0.42,Wunderground v.1.13,2013-01-01 17:11:00,
2013-01-01 12:16:00,47.4,46.9,30.22,North,349,0.0,0.0,98,0.00,,,0.43,Wunderground v.1.13,2013-01-01 17:16:00,
2013-01-01 12:21:00,47.4,46.9,30.22,North,349,0.0,0.0,98,0.00,,,0.43,Wunderground v.1.13,2013-01-01 17:21:00,
2013-01-01 12:26:00,47.4,46.9,30.22,North,349,0.0,0.0,98,0.06,,,0.44,Wunderground v.1.13,2013-01-01 17:26:00,
2013-01-01 12:31:00,47.5,47.0,30.20,North,349,0.0,0.0,98,0.06,,,0.44,Wunderground v.1.13,2013-01-01 17:31:00,
2013-01-01 12:36:00,47.7,47.2,30.20,North,349,0.0,0.0,98,0.07,,,0.45,Wunderground v.1.13,2013-01-01 17:36:00,
2013-01-01 12:41:00,47.8,47.3,30.19,North,349,0.0,0.0,98,0.08,,,0.46,Wunderground v.1.13,2013-01-01 17:41:00,
2013-01-01 12:46:00,47.9,47.4,30.18,North,349,0.0,0.0,98,0.09,,,0.47,Wunderground v.1.13,2013-01-01 17:46:00,
2013-01-01 12:51:00,48.0,47.5,30.18,North,349,0.0,0.0,98,0.13,,,0.48,Wunderground v.1.13,2013-01-01 17:51:00,
2013-01-01 12:57:00,48.0,47.5,30.20,North,349,0.0,0.0,98,0.16,,,0.49,Wunderground v.1.13,2013-01-01 17:57:00,
2013-01-01 13:02:00,47.9,47.4,30.18,North,349,0.0,0.0,98,0.08,,,0.49,Wunderground v.1.13,2013-01-01 18:02:00,
2013-01-01 13:07:00,47.8,47.3,30.19,North,349,0.0,0.0,98,0.07,,,0.50,Wunderground v.1.13,2013-01-01 18:07:00,
2013-01-01 13:12:00,47.8,47.3,30.19,North,349,0.0,0.0,98,0.07,,,0.51,Wunderground v.1.13,2013-01-01 18:12:00,
2013-01-01 13:17:00,47.7,47.2,30.19,North,349,0.0,0.0,98,0.07,,,0.51,Wunderground v.1.13,2013-01-01 18:17:00,
2013-01-01 13:22:00,47.7,47.2,30.19,North,349,0.0,0.0,98,0.10,,,0.52,Wunderground v.1.13,2013-01-01 18:22:00,
2013-01-01 13:27:00,47.8,47.3,30.19,North,349,0.0,0.0,98,0.09,,,0.53,Wunderground v.1.13,2013-01-01 18:27:00,
2013-01-01 13:32:00,48.1,47.6,30.19,North,349,0.0,0.0,98,0.08,,,0.53,Wunderground v.1.13,2013-01-01 18:32:00,
2013-01-01 13:37:00,48.2,47.7,30.19,North,349,0.0,0.0,98,0.06,,,0.54,Wunderground v.1.13,2013-01-01 18:37:00,
2013-01-01 13:42:00,48.3,47.8,30.19,North,349,0.0,0.0,98,0.08,,,0.55,Wunderground v.1.13,2013-01-01 18:42:00,
2013-01-01 13:47:00,48.5,48.0,30.18,North,349,0.0,0.0,98,0.08,,,0.55,Wunderground v.1.13,2013-01-01 18:47:00,
2013-01-01 13:52:00,48.6,48.1,30.17,North,349,0.0,0.0,98,0.06,,,0.55,Wunderground v.1.13,2013-01-01 18:52:00,
2013-01-01 13:57:00,48.6,48.1,30.17,North,349,0.0,0.0,98,0.05,,,0.56,Wunderground v.1.13,2013-01-01 18:57:00,
2013-01-01 14:02:00,48.8,48.3,30.17,North,349,0.0,0.0,98,0.05,,,0.56,Wunderground v.1.13,2013-01-01 19:02:00,
2013-01-01 14:07:00,48.8,48.3,30.17,North,349,0.0,0.0,98,0.05,,,0.56,Wunderground v.1.13,2013-01-01 19:07:00,
2013-01-01 14:12:00,49.0,48.7,30.17,North,349,0.0,0.0,99,0.04,,,0.57,Wunderground v.1.13,2013-01-01 19:12:00,
2013-01-01 14:17:00,49.1,48.8,30.16,North,349,0.0,0.0,99,0.04,,,0.57,Wunderground v.1.13,2013-01-01 19:17:00,
2013-01-01 14:22:00,49.2,48.7,30.16,North,349,0.0,0.0,98,0.08,,,0.58,Wunderground v.1.13,2013-01-01 19:22:00,
2013-01-01 14:27:00,49.3,48.8,30.15,North,349,0.0,0.0,98,0.09,,,0.59,Wunderground v.1.13,2013-01-01 19:27:00,
2013-01-01 14:32:00,49.4,48.9,30.15,North,349,0.0,1.0,98,0.09,,,0.59,Wunderground v.1.13,2013-01-01 19:32:00,
2013-01-01 14:37:00,49.5,49.2,30.15,North,349,0.0,0.0,99,0.06,,,0.59,Wunderground v.1.13,2013-01-01 19:37:00,
2013-01-01 14:42:00,49.6,49.3,30.15,North,349,0.0,0.0,99,0.04,,,0.59,Wunderground v.1.13,2013-01-01 19:42:00,
2013-01-01 14:47:00,49.8,49.5,30.15,North,349,0.0,0.0,99,0.00,,,0.60,Wunderground v.1.13,2013-01-01 19:47:00,
2013-01-01 14:52:00,49.9,49.6,30.15,North,349,0.0,0.0,99,0.00,,,0.60,Wunderground v.1.13,2013-01-01 19:52:00,
2013-01-01 14:57:00,49.9,49.6,30.15,North,349,0.0,0.0,99,0.00,,,0.60,Wunderground v.1.13,2013-01-01 19:57:00,
2013-01-01 15:02:00,50.0,49.7,30.14,North,349,0.0,0.0,99,0.04,,,0.61,Wunderground v.1.13,2013-01-01 20:02:00,
2013-01-01 15:07:00,50.0,49.7,30.15,North,349,0.0,0.0,99,0.04,,,0.61,Wunderground v.1.13,2013-01-01 20:07:00,
2013-01-01 15:12:00,50.0,49.7,30.15,North,349,0.0,0.0,99,0.04,,,0.61,Wunderground v.1.13,2013-01-01 20:12:00,
2013-01-01 15:17:00,49.9,49.6,30.16,North,349,0.0,0.0,99,0.04,,,0.61,Wunderground v.1.13,2013-01-01 20:17:00,
2013-01-01 15:22:00,49.8,49.5,30.16,North,349,0.0,0.0,99,0.00,,,0.62,Wunderground v.1.13,2013-01-01 20:22:00,
2013-01-01 15:27:00,49.8,49.5,30.16,North,349,0.0,0.0,99,0.00,,,0.62,Wunderground v.1.13,2013-01-01 20:27:00,
2013-01-01 15:32:00,49.8,49.5,30.15,North,349,0.0,0.0,99,0.05,,,0.63,Wunderground v.1.13,2013-01-01 20:32:00,
2013-01-01 15:37:00,49.7,49.4,30.15,North,349,0.0,0.0,99,0.11,,,0.63,Wunderground v.1.13,2013-01-01 20:37:00,
2013-01-01 15:42:00,49.6,49.3,30.16,North,349,0.0,0.0,99,0.11,,,0.64,Wunderground v.1.13,2013-01-01 20:42:00,
2013-01-01 15:47:00,49.5,49.2,30.16,North,349,0.0,0.0,99,0.06,,,0.64,Wunderground v.1.13,2013-01-01 20:47:00,
2013-01-01 15:53:00,49.4,48.9,30.15,North,349,0.0,0.0,98,0.06,,,0.65,Wunderground v.1.13,2013-01-01 20:53:00,
2013-01-01 15:58:00,49.4,48.9,30.15,North,349,0.0,0.0,98,0.09,,,0.66,Wunderground v.1.13,2013-01-01 20:58:00,
2013-01-01 16:03:00,49.4,48.9,30.15,North,349,0.0,0.0,98,0.07,,,0.66,Wunderground v.1.13,2013-01-01 21:03:00,
2013-01-01 16:08:00,49.4,48.9,30.15,North,349,0.0,0.0,98,0.04,,,0.66,Wunderground v.1.13,2013-01-01 21:08:00,
2013-01-01 16:13:00,49.4,48.9,30.14,North,349,0.0,0.0,98,0.04,,,0.67,Wunderground v.1.13,2013-01-01 21:13:00,
2013-01-01 16:18:00,49.3,48.8,30.14,North,349,0.0,0.0,98,0.10,,,0.68,Wunderground v.1.13,2013-01-01 21:18:00,
2013-01-01 16:23:00,49.1,48.6,30.15,North,349,0.0,0.0,98,0.08,,,0.69,Wunderground v.1.13,2013-01-01 21:23:00,
2013-01-01 16:29:00,49.1,48.6,30.16,North,349,0.0,0.0,98,0.15,,,0.70,Wunderground v.1.13,2013-01-01 21:29:00,
2013-01-01 16:34:00,49.0,48.5,30.15,North,349,0.0,0.0,98,0.14,,,0.71,Wunderground v.1.13,2013-01-01 21:34:00,
2013-01-01 16:39:00,48.9,48.4,30.14,North,349,0.0,0.0,98,0.16,,,0.72,Wunderground v.1.13,2013-01-01 21:39:00,
2013-01-01 16:44:00,48.8,48.3,30.14,North,349,0.0,0.0,98,0.09,,,0.73,Wunderground v.1.13,2013-01-01 21:44:00,
2013-01-01 16:49:00,48.8,48.3,30.16,North,349,0.0,0.0,98,0.13,,,0.74,Wunderground v.1.13,2013-01-01 21:49:00,
2013-01-01 16:54:00,48.8,48.3,30.14,North,349,0.0,0.0,98,0.08,,,0.74,Wunderground v.1.13,2013-01-01 21:54:00,
2013-01-01 16:59:00,48.8,48.3,30.14,North,349,0.0,0.0,98,0.08,,,0.75,Wunderground v.1.13,2013-01-01 21:59:00,
2013-01-01 17:04:00,48.7,48.2,30.14,North,349,0.0,0.0,98,0.07,,,0.76,Wunderground v.1.13,2013-01-01 22:04:00,
2013-01-01 17:09:00,48.7,48.2,30.14,North,349,0.0,0.0,98,0.07,,,0.76,Wunderground v.1.13,2013-01-01 22:09:00,
2013-01-01 17:14:00,48.7,48.2,30.14,North,349,0.0,0.0,98,0.05,,,0.77,Wunderground v.1.13,2013-01-01 22:14:00,
2013-01-01 17:19:00,48.6,48.1,30.13,North,349,0.0,0.0,98,0.05,,,0.77,Wunderground v.1.13,2013-01-01 22:19:00,
2013-01-01 17:24:00,48.6,48.1,30.13,North,349,0.0,0.0,98,0.05,,,0.77,Wunderground v.1.13,2013-01-01 22:24:00,
2013-01-01 17:29:00,48.6,48.1,30.14,North,349,0.0,0.0,98,0.04,,,0.78,Wunderground v.1.13,2013-01-01 22:29:00,
2013-01-01 17:34:00,48.5,48.0,30.14,North,349,0.0,0.0,98,0.04,,,0.78,Wunderground v.1.13,2013-01-01 22:34:00,
2013-01-01 17:39:00,48.6,48.1,30.14,North,349,0.0,0.0,98,0.04,,,0.78,Wunderground v.1.13,2013-01-01 22:39:00,
2013-01-01 17:44:00,48.5,48.0,30.14,North,349,0.0,0.0,98,0.00,,,0.78,Wunderground v.1.13,2013-01-01 22:44:00,
2013-01-01 17:49:00,48.5,48.0,30.14,North,349,0.0,0.0,98,0.00,,,0.79,Wunderground v.1.13,2013-01-01 22:49:00,
2013-01-01 17:54:00,48.5,48.0,30.15,North,349,0.0,0.0,98,0.00,,,0.79,Wunderground v.1.13,2013-01-01 22:54:00,
2013-01-01 17:59:00,48.4,47.9,30.15,North,349,0.0,0.0,98,0.08,,,0.80,Wunderground v.1.13,2013-01-01 22:59:00,
2013-01-01 18:04:00,48.4,47.9,30.14,North,349,0.0,0.0,98,0.09,,,0.81,Wunderground v.1.13,2013-01-01 23:04:00,
2013-01-01 18:09:00,48.4,47.9,30.13,North,349,0.0,0.0,98,0.14,,,0.82,Wunderground v.1.13,2013-01-01 23:09:00,
2013-01-01 18:14:00,48.4,47.9,30.14,North,349,0.0,1.0,98,0.08,,,0.83,Wunderground v.1.13,2013-01-01 23:14:00,
2013-01-01 18:19:00,48.4,47.9,30.14,North,349,0.0,2.0,98,0.15,,,0.84,Wunderground v.1.13,2013-01-01 23:19:00,
2013-01-01 18:24:00,48.3,47.8,30.14,North,349,0.0,0.0,98,0.10,,,0.85,Wunderground v.1.13,2013-01-01 23:24:00,
2013-01-01 18:29:00,48.3,47.8,30.14,North,349,0.0,0.0,98,0.14,,,0.86,Wunderground v.1.13,2013-01-01 23:29:00,
2013-01-01 18:34:00,48.3,47.8,30.14,North,349,0.0,0.0,98,0.07,,,0.86,Wunderground v.1.13,2013-01-01 23:34:00,
2013-01-01 18:39:00,48.3,47.8,30.13,North,349,0.0,0.0,98,0.05,,,0.86,Wunderground v.1.13,2013-01-01 23:39:00,
2013-01-01 18:44:00,48.2,47.7,30.14,North,349,0.0,0.0,98,0.00,,,0.86,Wunderground v.1.13,2013-01-01 23:44:00,
2013-01-01 18:49:00,48.2,47.7,30.14,North,349,0.0,0.0,98,0.00,,,0.86,Wunderground v.1.13,2013-01-01 23:49:00,
2013-01-01 18:54:00,48.2,47.7,30.14,North,349,0.0,0.0,98,0.00,,,0.87,Wunderground v.1.13,2013-01-01 23:54:00,
2013-01-01 18:59:00,48.1,47.6,30.14,North,349,0.0,0.0,98,0.00,,,0.87,Wunderground v.1.13,2013-01-01 23:59:00,
2013-01-01 19:04:00,48.1,47.6,30.14,North,349,0.0,0.0,98,0.00,,,0.87,Wunderground v.1.13,2013-01-02 00:04:00,
2013-01-01 19:09:00,48.1,47.6,30.14,North,349,0.0,0.0,98,0.00,,,0.87,Wunderground v.1.13,2013-01-02 00:09:00,
2013-01-01 19:14:00,48.1,47.6,30.15,North,349,0.0,0.0,98,0.00,,,0.87,Wunderground v.1.13,2013-01-02 00:14:00,
2013-01-01 19:19:00,48.1,47.6,30.15,North,349,0.0,0.0,98,0.00,,,0.87,Wunderground v.1.13,2013-01-02 00:19:00,
2013-01-01 19:24:00,48.1,47.6,30.15,North,349,0.0,0.0,98,0.00,,,0.87,Wunderground v.1.13,2013-01-02 00:24:00,
2013-01-01 19:29:00,48.1,47.6,30.15,North,349,0.0,0.0,98,0.00,,,0.87,Wunderground v.1.13,2013-01-02 00:29:00,
2013-01-01 19:34:00,48.1,47.6,30.16,North,349,0.0,0.0,98,0.00,,,0.88,Wunderground v.1.13,2013-01-02 00:34:00,
2013-01-01 19:39:00,48.0,47.5,30.15,North,349,0.0,0.0,98,0.00,,,0.88,Wunderground v.1.13,2013-01-02 00:39:00,
2013-01-01 19:44:00,48.0,47.5,30.15,North,349,0.0,0.0,98,0.06,,,0.89,Wunderground v.1.13,2013-01-02 00:44:00,
2013-01-01 19:50:00,47.9,47.4,30.14,North,349,0.0,0.0,98,0.08,,,0.90,Wunderground v.1.13,2013-01-02 00:50:00,
2013-01-01 19:55:00,47.9,47.4,30.13,North,349,0.0,0.0,98,0.08,,,0.90,Wunderground v.1.13,2013-01-02 00:55:00,
2013-01-01 20:00:00,47.9,47.4,30.13,North,349,0.0,0.0,98,0.05,,,0.90,Wunderground v.1.13,2013-01-02 01:00:00,
2013-01-01 20:05:00,47.9,47.4,30.14,North,349,0.0,0.0,98,0.00,,,0.90,Wunderground v.1.13,2013-01-02 01:05:00,
2013-01-01 20:10:00,47.9,47.4,30.14,North,349,0.0,0.0,98,0.00,,,0.90,Wunderground v.1.13,2013-01-02 01:10:00,
2013-01-01 20:15:00,47.9,47.6,30.15,North,349,0.0,0.0,99,0.00,,,0.90,Wunderground v.1.13,2013-01-02 01:15:00,
2013-01-01 20:20:00,47.9,47.6,30.14,North,349,0.0,0.0,99,0.00,,,0.91,Wunderground v.1.13,2013-01-02 01:20:00,
2013-01-01 20:25:00,47.8,47.5,30.14,North,349,0.0,0.0,99,0.09,,,0.92,Wunderground v.1.13,2013-01-02 01:25:00,
2013-01-01 20:30:00,47.8,47.5,30.14,North,349,0.0,0.0,99,0.09,,,0.92,Wunderground v.1.13,2013-01-02 01:30:00,
2013-01-01 20:35:00,47.8,47.5,30.14,North,349,0.0,0.0,99,0.06,,,0.92,Wunderground v.1.13,2013-01-02 01:35:00,
2013-01-01 20:40:00,47.8,47.5,30.14,North,349,0.0,0.0,99,0.04,,,0.92,Wunderground v.1.13,2013-01-02 01:40:00,
2013-01-01 20:45:00,47.7,47.2,30.14,North,349,0.0,0.0,98,0.00,,,0.92,Wunderground v.1.13,2013-01-02 01:45:00,
2013-01-01 20:50:00,47.7,47.2,30.13,North,349,0.0,0.0,98,0.00,,,0.93,Wunderground v.1.13,2013-01-02 01:50:00,
2013-01-01 20:55:00,47.7,47.2,30.14,North,349,0.0,0.0,98,0.00,,,0.93,Wunderground v.1.13,2013-01-02 01:55:00,
2013-01-01 21:00:00,47.6,47.1,30.14,North,349,0.0,0.0,98,0.07,,,0.94,Wunderground v.1.13,2013-01-02 02:00:00,
2013-01-01 21:05:00,47.6,47.1,30.14,North,349,0.0,0.0,98,0.07,,,0.94,Wunderground v.1.13,2013-01-02 02:05:00,
2013-01-01 21:10:00,47.6,47.1,30.14,North,349,0.0,0.0,98,0.05,,,0.94,Wunderground v.1.13,2013-01-02 02:10:00,
2013-01-01 21:15:00,47.6,47.1,30.13,North,349,0.0,0.0,98,0.04,,,0.94,Wunderground v.1.13,2013-01-02 02:15:00,
2013-01-01 21:20:00,47.6,47.1,30.14,North,349,0.0,0.0,98,0.00,,,0.94,Wunderground v.1.13,2013-01-02 02:20:00,
2013-01-01 21:25:00,47.5,47.0,30.14,North,349,0.0,0.0,98,0.00,,,0.94,Wunderground v.1.13,2013-01-02 02:25:00,
2013-01-01 21:30:00,47.5,47.0,30.14,North,349,0.0,0.0,98,0.00,,,0.94,Wunderground v.1.13,2013-01-02 02:30:00,
2013-01-01 21:35:00,47.4,46.9,30.14,North,349,0.0,0.0,98,0.00,,,0.95,Wunderground v.1.13,2013-01-02 02:35:00,
2013-01-01 21:40:00,47.4,46.9,30.14,North,349,0.0,0.0,98,0.00,,,0.95,Wunderground v.1.13,2013-01-02 02:40:00,
2013-01-01 21:45:00,47.4,47.1,30.14,North,349,0.0,0.0,99,0.00,,,0.95,Wunderground v.1.13,2013-01-02 02:45:00,
2013-01-01 21:51:00,47.3,47.0,30.14,North,349,0.0,0.0,99,0.00,,,0.95,Wunderground v.1.13,2013-01-02 02:51:00,
2013-01-01 21:56:00,47.3,47.0,30.14,North,349,0.0,0.0,99,0.00,,,0.95,Wunderground v.1.13,2013-01-02 02:56:00,
2013-01-01 22:01:00,47.3,47.0,30.14,North,349,0.0,0.0,99,0.00,,,0.96,Wunderground v.1.13,2013-01-02 03:01:00,
2013-01-01 22:06:00,47.2,46.9,30.14,North,349,0.0,0.0,99,0.00,,,0.96,Wunderground v.1.13,2013-01-02 03:06:00,
2013-01-01 22:11:00,47.2,46.9,30.14,North,349,0.0,0.0,99,0.00,,,0.96,Wunderground v.1.13,2013-01-02 03:11:00,
2013-01-01 22:16:00,47.2,46.7,30.15,North,349,0.0,0.0,98,0.00,,,0.96,Wunderground v.1.13,2013-01-02 03:16:00,
2013-01-01 22:21:00,47.0,46.5,30.15,North,349,0.0,0.0,98,0.00,,,0.96,Wunderground v.1.13,2013-01-02 03:21:00,
2013-01-01 22:26:00,47.0,46.5,30.15,North,349,0.0,1.0,98,0.00,,,0.97,Wunderground v.1.13,2013-01-02 03:26:00,
2013-01-01 22:31:00,46.9,46.4,30.14,North,349,0.0,0.0,98,0.07,,,0.98,Wunderground v.1.13,2013-01-02 03:31:00,
2013-01-01 22:36:00,46.9,46.6,30.13,North,349,0.0,0.0,99,0.07,,,0.98,Wunderground v.1.13,2013-01-02 03:36:00,
2013-01-01 22:41:00,46.8,46.5,30.14,North,349,0.0,0.0,99,0.05,,,0.98,Wunderground v.1.13,2013-01-02 03:41:00,
2013-01-01 22:46:00,46.8,46.5,30.15,North,349,0.0,0.0,99,0.04,,,0.98,Wunderground v.1.13,2013-01-02 03:46:00,
2013-01-01 22:51:00,46.8,46.5,30.14,North,349,0.0,0.0,99,0.04,,,0.99,Wunderground v.1.13,2013-01-02 03:51:00,
2013-01-01 22:56:00,46.8,46.5,30.14,North,349,0.0,0.0,99,0.04,,,0.99,Wunderground v.1.13,2013-01-02 03:56:00,
2013-01-01 23:01:00,46.8,46.5,30.14,North,349,0.0,2.0,99,0.05,,,1.00,Wunderground v.1.13,2013-01-02 04:01:00,
2013-01-01 23:06:00,46.8,46.5,30.14,North,349,0.0,2.0,99,0.05,,,1.00,Wunderground v.1.13,2013-01-02 04:06:00,
2013-01-01 23:11:00,46.8,46.5,30.14,WNW,288,0.0,2.0,99,0.05,,,1.00,Wunderground v.1.13,2013-01-02 04:11:00,
2013-01-01 23:16:00,46.7,46.4,30.14,WNW,289,0.0,3.0,99,0.04,,,1.00,Wunderground v.1.13,2013-01-02 04:16:00,
2013-01-01 23:21:00,46.7,46.4,30.13,WNW,289,0.0,1.0,99,0.00,,,1.00,Wunderground v.1.13,2013-01-02 04:21:00,
2013-01-01 23:26:00,46.7,46.4,30.14,WNW,289,0.0,1.0,99,0.00,,,1.00,Wunderground v.1.13,2013-01-02 04:26:00,
2013-01-01 23:32:00,46.6,46.3,30.14,WNW,289,0.0,2.0,99,0.00,,,1.00,Wunderground v.1.13,2013-01-02 04:32:00,
2013-01-01 23:37:00,46.5,46.2,30.14,WNW,289,0.0,1.0,99,0.00,,,1.00,Wunderground v.1.13,2013-01-02 04:37:00,
2013-01-01 23:42:00,46.4,46.1,30.14,WNW,289,0.0,3.0,99,0.00,,,1.01,Wunderground v.1.13,2013-01-02 04:42:00,
2013-01-01 23:47:00,46.3,46.0,30.13,WNW,289,1.0,1.0,99,0.00,,,1.01,Wunderground v.1.13,2013-01-02 04:47:00,
2013-01-01 23:52:00,46.3,46.0,30.14,WNW,289,0.0,2.0,99,0.00,,,1.01,Wunderground v.1.13,2013-01-02 04:52:00,
2013-01-01 23:57:00,46.2,45.9,30.15,WNW,292,0.0,3.0,99,0.04,,,1.02,Wunderground v.1.13,2013-01-02 04:57:00,